SBI1138 UHWW-UHSS

Flight info

Callsign SBI1138
Flight time 1h 20m
Altitude 37000
Route DOLMA B356 LUBOK W209 RUNUK R810 TIMIT B919 KENOM
Aircraft A320/M-SDE3FGHIRWY/LB1

Departure

Time 2026-04-26 18:02
Airport Vladivostok International Airport (UHWW)

Arrival

Time 2026-04-26 19:22
Airport Yuzhno-Sakhalinsk International Airport (UHSS)
Time Latitude Longitude Altitude Speed Heading
2026-04-26 17:30 43.39693 132.16422 33 ft 0 kts 148°
2026-04-26 17:47 43.39697 132.16418 32 ft 4 kts 149°
2026-04-26 17:47 43.39737 132.16391 33 ft 4 kts 161°
2026-04-26 17:47 43.39763 132.16382 32 ft 4 kts 176°
2026-04-26 17:48 43.39788 132.16386 31 ft 4 kts 221°
2026-04-26 17:48 43.39794 132.16394 31 ft 1 kts 241°
2026-04-26 17:51 43.39784 132.16369 32 ft 8 kts 241°
2026-04-26 17:52 43.39755 132.16294 33 ft 9 kts 242°
2026-04-26 17:52 43.39759 132.16208 33 ft 10 kts 313°
2026-04-26 17:52 43.39826 132.16154 31 ft 12 kts 331°
2026-04-26 17:52 43.39890 132.16085 33 ft 12 kts 292°
2026-04-26 17:53 43.39856 132.15971 33 ft 15 kts 239°
2026-04-26 17:53 43.39802 132.15837 33 ft 17 kts 241°
2026-04-26 17:53 43.39739 132.15681 33 ft 20 kts 242°
2026-04-26 17:54 43.39622 132.15389 33 ft 18 kts 241°
2026-04-26 17:54 43.39558 132.15231 31 ft 20 kts 240°
2026-04-26 17:54 43.39492 132.15067 31 ft 18 kts 242°
2026-04-26 17:54 43.39444 132.14948 31 ft 13 kts 240°
2026-04-26 17:55 43.39396 132.14829 33 ft 16 kts 240°
2026-04-26 17:55 43.39340 132.14688 33 ft 18 kts 241°
2026-04-26 17:55 43.39276 132.14530 33 ft 20 kts 240°
2026-04-26 17:55 43.39211 132.14372 33 ft 19 kts 241°
2026-04-26 17:56 43.39166 132.14259 32 ft 11 kts 240°
2026-04-26 17:56 43.39074 132.14033 33 ft 16 kts 240°
2026-04-26 17:57 43.38950 132.13729 32 ft 20 kts 241°
2026-04-26 17:57 43.38892 132.13583 32 ft 17 kts 242°
2026-04-26 17:57 43.38831 132.13433 30 ft 19 kts 241°
2026-04-26 17:57 43.38781 132.13307 33 ft 12 kts 241°
2026-04-26 17:58 43.38848 132.13138 34 ft 0 kts 331°
2026-04-26 17:59 43.38867 132.13124 33 ft 5 kts 331°
2026-04-26 17:59 43.38897 132.13102 33 ft 5 kts 338°
2026-04-26 18:00 43.38937 132.13106 33 ft 7 kts 23°
2026-04-26 18:00 43.38968 132.13167 32 ft 1 kts 60°
2026-04-26 18:01 43.38997 132.13239 33 ft 38 kts 61°
2026-04-26 18:01 43.39245 132.13851 35 ft 105 kts 61°
2026-04-26 18:01 43.39690 132.14953 33 ft 156 kts 61°
2026-04-26 18:01 43.40243 132.16321 523 ft 159 kts 60°
2026-04-26 18:02 43.40777 132.17642 1286 ft 156 kts 59°
2026-04-26 18:02 43.40956 132.18086 1486 ft 160 kts 59°
2026-04-26 18:02 43.41733 132.20006 1984 ft 184 kts 60°
2026-04-26 18:02 43.42378 132.21601 2341 ft 202 kts 60°
2026-04-26 18:03 43.43092 132.23375 2789 ft 222 kts 60°
2026-04-26 18:03 43.43881 132.25334 3198 ft 246 kts 60°
2026-04-26 18:03 43.44734 132.27451 3865 ft 258 kts 60°
2026-04-26 18:03 43.45911 132.30376 5020 ft 264 kts 59°
2026-04-26 18:04 43.46502 132.31850 5584 ft 267 kts 59°
2026-04-26 18:04 43.47404 132.34099 6454 ft 270 kts 58°
2026-04-26 18:04 43.48377 132.36337 7232 ft 274 kts 51°
2026-04-26 18:05 43.51275 132.39778 8757 ft 281 kts 26°
2026-04-26 18:05 43.52991 132.41126 9526 ft 287 kts 26°
2026-04-26 18:05 43.54744 132.42507 10231 ft 294 kts 26°
2026-04-26 18:05 43.56585 132.43959 10512 ft 317 kts 26°
2026-04-26 18:06 43.58571 132.45526 10722 ft 340 kts 26°
2026-04-26 18:06 43.60694 132.47204 10890 ft 363 kts 27°
2026-04-26 18:06 43.62914 132.48971 11368 ft 373 kts 27°
2026-04-26 18:06 43.65144 132.50757 11985 ft 379 kts 27°
2026-04-26 18:07 43.67440 132.52600 12628 ft 385 kts 27°
2026-04-26 18:07 43.69773 132.54474 13254 ft 391 kts 27°
2026-04-26 18:07 43.72140 132.56374 13853 ft 397 kts 27°
2026-04-26 18:07 43.73761 132.57674 14210 ft 400 kts 26°
2026-04-26 18:08 43.76153 132.59592 14753 ft 405 kts 26°
2026-04-26 18:08 43.81908 132.64707 16026 ft 421 kts 37°
2026-04-26 18:08 43.84110 132.67425 16553 ft 426 kts 38°
2026-04-26 18:09 43.86335 132.70173 17063 ft 431 kts 38°
2026-04-26 18:09 43.88590 132.72951 17566 ft 436 kts 37°
2026-04-26 18:09 43.90868 132.75762 18054 ft 441 kts 37°
2026-04-26 18:09 43.93166 132.78602 18508 ft 445 kts 37°
2026-04-26 18:10 43.95490 132.81473 18950 ft 449 kts 37°
2026-04-26 18:10 43.97835 132.84369 19413 ft 452 kts 37°
2026-04-26 18:10 44.00190 132.87282 19856 ft 455 kts 37°
2026-04-26 18:10 44.02563 132.90223 20289 ft 459 kts 37°
2026-04-26 18:11 44.04950 132.93185 20712 ft 462 kts 37°
2026-04-26 18:11 44.07357 132.96173 21132 ft 466 kts 37°
2026-04-26 18:11 44.09782 132.99191 21546 ft 469 kts 37°
2026-04-26 18:11 44.12186 133.02191 21948 ft 473 kts 37°
2026-04-26 18:12 44.14645 133.05264 22360 ft 476 kts 37°
2026-04-26 18:12 44.17120 133.08359 22763 ft 480 kts 37°
2026-04-26 18:12 44.19613 133.11469 23130 ft 482 kts 36°
2026-04-26 18:12 44.22263 133.14321 23488 ft 482 kts 31°
2026-04-26 18:13 44.24978 133.17101 23808 ft 486 kts 31°
2026-04-26 18:13 44.27708 133.19902 24115 ft 489 kts 31°
2026-04-26 18:13 44.30455 133.22732 24428 ft 492 kts 31°
2026-04-26 18:13 44.32278 133.24615 24638 ft 494 kts 32°
2026-04-26 18:14 44.35989 133.28451 25071 ft 498 kts 32°
2026-04-26 18:14 44.38778 133.31337 25385 ft 500 kts 32°
2026-04-26 18:14 44.41585 133.34245 25688 ft 503 kts 32°
2026-04-26 18:14 44.44403 133.37163 25999 ft 505 kts 32°
2026-04-26 18:15 44.47232 133.40101 26279 ft 508 kts 32°
2026-04-26 18:15 44.50077 133.43061 26556 ft 511 kts 32°
2026-04-26 18:15 44.52936 133.46035 26830 ft 513 kts 32°
2026-04-26 18:15 44.55808 133.49022 27104 ft 515 kts 32°
2026-04-26 18:16 44.58689 133.52029 27370 ft 518 kts 33°
2026-04-26 18:16 44.64487 133.58104 27948 ft 521 kts 33°
2026-04-26 18:16 44.67391 133.61154 28355 ft 521 kts 33°
2026-04-26 18:17 44.70252 133.64155 28741 ft 520 kts 33°
2026-04-26 18:17 44.73152 133.67197 29116 ft 520 kts 33°
2026-04-26 18:17 44.76055 133.70246 29487 ft 521 kts 33°
2026-04-26 18:17 44.78956 133.73302 29874 ft 521 kts 33°
2026-04-26 18:18 44.81852 133.76354 30222 ft 521 kts 33°
2026-04-26 18:18 44.84750 133.79418 30524 ft 521 kts 33°
2026-04-26 18:18 44.87643 133.82482 30818 ft 521 kts 34°
2026-04-26 18:18 44.90409 133.85802 31120 ft 524 kts 42°
2026-04-26 18:19 44.92845 133.89639 31422 ft 526 kts 51°
2026-04-26 18:19 44.94918 133.93897 31711 ft 527 kts 57°
2026-04-26 18:19 44.96894 133.98266 31998 ft 528 kts 57°
2026-04-26 18:19 44.98872 134.02625 32297 ft 528 kts 57°
2026-04-26 18:20 45.00854 134.06994 32582 ft 528 kts 57°
2026-04-26 18:20 45.02838 134.11370 32900 ft 528 kts 57°
2026-04-26 18:20 45.04813 134.15746 33192 ft 529 kts 57°
2026-04-26 18:20 45.06120 134.18652 33386 ft 529 kts 57°
2026-04-26 18:21 45.08758 134.24533 33795 ft 529 kts 57°
2026-04-26 18:21 45.10727 134.28929 34068 ft 529 kts 57°
2026-04-26 18:21 45.12670 134.33277 34318 ft 529 kts 57°
2026-04-26 18:21 45.14634 134.37674 34597 ft 528 kts 57°
2026-04-26 18:22 45.16596 134.42069 34879 ft 527 kts 57°
2026-04-26 18:22 45.18548 134.46457 35164 ft 526 kts 57°
2026-04-26 18:22 45.20493 134.50838 35438 ft 525 kts 57°
2026-04-26 18:22 45.22438 134.55217 35703 ft 524 kts 57°
2026-04-26 18:23 45.24371 134.59583 35964 ft 523 kts 57°
2026-04-26 18:23 45.26304 134.63949 36221 ft 522 kts 57°
2026-04-26 18:23 45.28236 134.68309 36461 ft 521 kts 57°
2026-04-26 18:23 45.30162 134.72652 36699 ft 520 kts 57°
2026-04-26 18:24 45.32081 134.77002 36922 ft 519 kts 57°
2026-04-26 18:24 45.34000 134.81362 37017 ft 520 kts 57°
2026-04-26 18:24 45.37831 134.90111 37023 ft 522 kts 57°
2026-04-26 18:25 45.41668 134.98879 37030 ft 522 kts 57°
2026-04-26 18:25 45.45477 135.07596 37025 ft 522 kts 57°
2026-04-26 18:26 45.49299 135.16395 37026 ft 522 kts 58°
2026-04-26 18:26 45.53119 135.25199 37029 ft 522 kts 58°
2026-04-26 18:27 45.56935 135.34027 37027 ft 523 kts 58°
2026-04-26 18:27 45.60746 135.42871 37027 ft 523 kts 58°
2026-04-26 18:28 45.64544 135.51735 37025 ft 523 kts 58°
2026-04-26 18:28 45.68343 135.60609 37026 ft 524 kts 58°
2026-04-26 18:29 45.72139 135.69504 37024 ft 524 kts 58°
2026-04-26 18:29 45.75913 135.78353 37029 ft 524 kts 58°
2026-04-26 18:30 45.79703 135.87271 37033 ft 524 kts 58°
2026-04-26 18:30 45.83482 135.96220 37033 ft 524 kts 58°
2026-04-26 18:31 45.87251 136.05165 37031 ft 524 kts 58°
2026-04-26 18:31 45.91013 136.14131 37026 ft 524 kts 58°
2026-04-26 18:32 45.94773 136.23102 37028 ft 524 kts 58°
2026-04-26 18:32 45.98518 136.32078 37023 ft 524 kts 58°
2026-04-26 18:33 46.02254 136.41066 37020 ft 524 kts 58°
2026-04-26 18:33 46.05987 136.50067 37021 ft 524 kts 58°
2026-04-26 18:34 46.09690 136.59021 37027 ft 524 kts 58°
2026-04-26 18:34 46.13396 136.68015 37017 ft 515 kts 59°
2026-04-26 18:35 46.17046 136.76919 37019 ft 519 kts 59°
2026-04-26 18:35 46.20733 136.85922 37019 ft 522 kts 59°
2026-04-26 18:36 46.24416 136.94949 37021 ft 522 kts 59°
2026-04-26 18:36 46.28101 137.03991 37026 ft 522 kts 59°
2026-04-26 18:37 46.31772 137.13049 37027 ft 522 kts 59°
2026-04-26 18:37 46.35419 137.22133 37027 ft 522 kts 62°
2026-04-26 18:38 46.37964 137.31932 37033 ft 520 kts 76°
2026-04-26 18:38 46.39864 137.41985 37032 ft 521 kts 76°
2026-04-26 18:39 46.41811 137.52091 37038 ft 521 kts 76°
2026-04-26 18:39 46.43751 137.62213 37039 ft 521 kts 76°
2026-04-26 18:40 46.45652 137.72350 37046 ft 521 kts 76°
2026-04-26 18:40 46.47538 137.82512 37050 ft 522 kts 76°
2026-04-26 18:41 46.49425 137.92675 37052 ft 521 kts 76°
2026-04-26 18:41 46.51304 138.02835 37057 ft 521 kts 76°
2026-04-26 18:42 46.53167 138.13010 37059 ft 522 kts 77°
2026-04-26 18:42 46.55013 138.23190 37061 ft 521 kts 77°
2026-04-26 18:43 46.56861 138.33385 37063 ft 521 kts 77°
2026-04-26 18:43 46.58697 138.43576 37056 ft 521 kts 77°
2026-04-26 18:44 46.60503 138.53702 37051 ft 521 kts 77°
2026-04-26 18:44 46.62301 138.63914 37052 ft 521 kts 80°
2026-04-26 18:45 46.63289 138.74302 37047 ft 518 kts 86°
2026-04-26 18:45 46.64121 138.84726 37044 ft 519 kts 86°
2026-04-26 18:46 46.64944 138.95151 37038 ft 519 kts 86°
2026-04-26 18:46 46.65771 139.05592 37043 ft 519 kts 86°
2026-04-26 18:47 46.66585 139.16030 37037 ft 519 kts 86°
2026-04-26 18:47 46.67383 139.26478 37037 ft 519 kts 86°
2026-04-26 18:48 46.68168 139.36846 37028 ft 519 kts 86°
2026-04-26 18:48 46.68968 139.47290 37028 ft 519 kts 86°
2026-04-26 18:49 46.69765 139.57745 37026 ft 519 kts 86°
2026-04-26 18:49 46.70548 139.68199 37018 ft 519 kts 86°
2026-04-26 18:50 46.71324 139.78671 37009 ft 520 kts 86°
2026-04-26 18:50 46.72076 139.89140 37005 ft 520 kts 87°
2026-04-26 18:51 46.72821 139.99628 37008 ft 520 kts 87°
2026-04-26 18:51 46.73582 140.10103 37006 ft 520 kts 86°
2026-04-26 18:52 46.74234 140.18815 37006 ft 520 kts 86°
2026-04-26 18:52 46.74973 140.29300 37002 ft 520 kts 87°
2026-04-26 18:53 46.75669 140.39729 36998 ft 520 kts 87°
2026-04-26 18:53 46.76353 140.50215 36909 ft 519 kts 87°
2026-04-26 18:54 46.76695 140.55458 36648 ft 519 kts 87°
2026-04-26 18:54 46.77034 140.60712 36183 ft 522 kts 88°
2026-04-26 18:54 46.77375 140.66024 35142 ft 531 kts 88°
2026-04-26 18:54 46.77722 140.71418 34157 ft 538 kts 88°
2026-04-26 18:55 46.78076 140.76897 32956 ft 547 kts 88°
2026-04-26 18:55 46.78435 140.82407 32221 ft 544 kts 88°
2026-04-26 18:55 46.78793 140.87913 31295 ft 546 kts 88°
2026-04-26 18:55 46.79144 140.93442 30360 ft 548 kts 88°
2026-04-26 18:56 46.79489 140.98987 29310 ft 550 kts 88°
2026-04-26 18:56 46.79828 141.04544 28243 ft 550 kts 88°
2026-04-26 18:56 46.80162 141.10097 27225 ft 548 kts 88°
2026-04-26 18:56 46.80491 141.15628 26211 ft 546 kts 88°
2026-04-26 18:57 46.80817 141.21141 25201 ft 545 kts 88°
2026-04-26 18:57 46.81033 141.24782 24653 ft 540 kts 88°
2026-04-26 18:57 46.81466 141.32034 23546 ft 532 kts 89°
2026-04-26 18:57 46.81781 141.37312 22699 ft 525 kts 89°
2026-04-26 18:58 46.82091 141.42594 21857 ft 519 kts 89°
2026-04-26 18:58 46.82391 141.47811 21081 ft 513 kts 89°
2026-04-26 18:58 46.82687 141.52951 20086 ft 501 kts 88°
2026-04-26 18:58 46.82975 141.57979 18745 ft 493 kts 88°
2026-04-26 18:59 46.83252 141.62916 17371 ft 484 kts 88°
2026-04-26 18:59 46.83517 141.67771 16061 ft 475 kts 88°
2026-04-26 18:59 46.83776 141.72527 14872 ft 466 kts 88°
2026-04-26 18:59 46.84312 141.77185 14256 ft 463 kts 77°
2026-04-26 19:00 46.85348 141.81589 13802 ft 455 kts 66°
2026-04-26 19:00 46.86835 141.85594 13531 ft 445 kts 56°
2026-04-26 19:00 46.88605 141.89269 13271 ft 440 kts 54°
2026-04-26 19:00 46.90378 141.92898 13001 ft 437 kts 54°
2026-04-26 19:01 46.92144 141.96508 12733 ft 435 kts 54°
2026-04-26 19:01 46.93898 142.00095 12471 ft 432 kts 54°
2026-04-26 19:01 46.95639 142.03661 12215 ft 430 kts 54°
2026-04-26 19:01 46.97374 142.07215 11954 ft 428 kts 54°
2026-04-26 19:02 46.99096 142.10751 11701 ft 425 kts 54°
2026-04-26 19:02 47.00799 142.14264 11453 ft 422 kts 54°
2026-04-26 19:02 47.02492 142.17765 11200 ft 420 kts 54°
2026-04-26 19:02 47.03608 142.20073 11035 ft 418 kts 54°
2026-04-26 19:03 47.05829 142.24660 10709 ft 416 kts 54°
2026-04-26 19:03 47.07498 142.28110 10471 ft 413 kts 54°
2026-04-26 19:03 47.09155 142.31541 10223 ft 411 kts 54°
2026-04-26 19:03 47.10804 142.34951 9980 ft 407 kts 54°
2026-04-26 19:04 47.12383 142.38227 9982 ft 375 kts 54°
2026-04-26 19:04 47.13818 142.41215 10000 ft 342 kts 54°
2026-04-26 19:04 47.15139 142.43974 10008 ft 323 kts 54°
2026-04-26 19:04 47.16425 142.46660 9915 ft 320 kts 54°
2026-04-26 19:05 47.18966 142.51964 9646 ft 316 kts 54°
2026-04-26 19:05 47.20150 142.54664 9519 ft 314 kts 64°
2026-04-26 19:05 47.20857 142.57677 9386 ft 311 kts 81°
2026-04-26 19:06 47.21010 142.60815 9251 ft 306 kts 97°
2026-04-26 19:06 47.20625 142.63858 9116 ft 300 kts 112°
2026-04-26 19:06 47.19755 142.66610 8985 ft 294 kts 127°
2026-04-26 19:06 47.18484 142.68916 8851 ft 288 kts 141°
2026-04-26 19:07 47.16908 142.70665 8713 ft 281 kts 155°
2026-04-26 19:07 47.15143 142.71792 8579 ft 271 kts 168°
2026-04-26 19:07 47.13352 142.72285 8442 ft 255 kts 181°
2026-04-26 19:07 47.11628 142.72285 8312 ft 242 kts 185°
2026-04-26 19:08 47.09973 142.72239 8180 ft 233 kts 185°
2026-04-26 19:08 47.08369 142.72199 8048 ft 229 kts 185°
2026-04-26 19:08 47.06799 142.72158 7918 ft 228 kts 185°
2026-04-26 19:08 47.05201 142.72114 7592 ft 234 kts 185°
2026-04-26 19:09 47.03575 142.72068 7058 ft 234 kts 184°
2026-04-26 19:09 47.01950 142.72025 6633 ft 230 kts 184°
2026-04-26 19:09 47.00375 142.71985 6495 ft 226 kts 183°
2026-04-26 19:09 46.98803 142.71943 6375 ft 226 kts 183°
2026-04-26 19:10 46.97227 142.71901 6245 ft 226 kts 183°
2026-04-26 19:10 46.95653 142.71859 6116 ft 226 kts 183°
2026-04-26 19:10 46.94077 142.71817 5978 ft 226 kts 183°
2026-04-26 19:10 46.92508 142.71775 5852 ft 225 kts 183°
2026-04-26 19:11 46.90948 142.71734 5720 ft 223 kts 183°
2026-04-26 19:11 46.89397 142.71689 5586 ft 223 kts 183°
2026-04-26 19:11 46.87850 142.71646 5459 ft 222 kts 182°
2026-04-26 19:11 46.86306 142.71606 5327 ft 221 kts 183°
2026-04-26 19:12 46.84770 142.71566 5272 ft 219 kts 183°
2026-04-26 19:12 46.83246 142.71322 5315 ft 221 kts 194°
2026-04-26 19:12 46.81778 142.70653 5103 ft 220 kts 202°
2026-04-26 19:12 46.80353 142.69845 4895 ft 219 kts 202°
2026-04-26 19:13 46.78953 142.69056 4695 ft 219 kts 202°
2026-04-26 19:13 46.77534 142.68257 4485 ft 218 kts 201°
2026-04-26 19:13 46.76120 142.67461 4289 ft 218 kts 201°
2026-04-26 19:13 46.74708 142.66668 4089 ft 217 kts 200°
2026-04-26 19:14 46.73299 142.65880 3899 ft 217 kts 199°
2026-04-26 19:14 46.71888 142.65096 3698 ft 217 kts 199°
2026-04-26 19:14 46.70475 142.64310 3504 ft 217 kts 198°
2026-04-26 19:14 46.69538 142.63790 3376 ft 218 kts 198°
2026-04-26 19:15 46.67641 142.62739 3104 ft 218 kts 198°
2026-04-26 19:15 46.66196 142.62079 2899 ft 217 kts 181°
2026-04-26 19:15 46.64764 142.62498 2651 ft 211 kts 147°
2026-04-26 19:15 46.63776 142.63980 2443 ft 204 kts 114°
2026-04-26 19:16 46.63431 142.65952 2217 ft 202 kts 91°
2026-04-26 19:16 46.63654 142.67951 2070 ft 202 kts 69°
2026-04-26 19:16 46.64406 142.69664 2022 ft 203 kts 47°
2026-04-26 19:16 46.65581 142.70830 2023 ft 208 kts 25°
2026-04-26 19:17 46.66994 142.71228 2026 ft 214 kts
2026-04-26 19:17 46.68483 142.71261 2025 ft 214 kts
2026-04-26 19:17 46.69971 142.71292 2025 ft 214 kts
2026-04-26 19:17 46.71457 142.71328 2031 ft 213 kts
2026-04-26 19:18 46.72931 142.71363 2016 ft 208 kts
2026-04-26 19:18 46.74334 142.71395 2007 ft 196 kts
2026-04-26 19:18 46.75652 142.71426 2033 ft 181 kts
2026-04-26 19:18 46.76867 142.71455 1886 ft 168 kts
2026-04-26 19:19 46.77977 142.71482 1719 ft 153 kts
2026-04-26 19:19 46.78986 142.71506 1545 ft 139 kts
2026-04-26 19:19 46.79937 142.71531 1370 ft 135 kts
2026-04-26 19:19 46.80870 142.71555 1199 ft 133 kts
2026-04-26 19:20 46.81786 142.71578 1025 ft 131 kts
2026-04-26 19:20 46.82387 142.71600 906 ft 130 kts
2026-04-26 19:20 46.83580 142.71663 665 ft 127 kts 358°
2026-04-26 19:20 46.84462 142.71622 528 ft 127 kts
2026-04-26 19:21 46.85332 142.71655 378 ft 127 kts
2026-04-26 19:21 46.86217 142.71671 210 ft 127 kts
2026-04-26 19:21 46.87098 142.71694 96 ft 127 kts
2026-04-26 19:21 46.87909 142.71725 68 ft 88 kts
2026-04-26 19:22 46.88266 142.71734 74 ft 34 kts
2026-04-26 19:22 46.88490 142.71740 68 ft 31 kts
2026-04-26 19:22 46.88636 142.71744 65 ft 14 kts
2026-04-26 19:22 46.88695 142.71793 68 ft 9 kts 69°
2026-04-26 19:23 46.88696 142.71910 67 ft 13 kts 91°
2026-04-26 19:23 46.88696 142.71926 67 ft 0 kts 92°
2026-04-26 19:26 46.88696 142.71936 61 ft 2 kts 92°
2026-04-26 19:26 46.88695 142.71969 66 ft 6 kts 92°
2026-04-26 19:26 46.88694 142.72038 62 ft 6 kts 91°
2026-04-26 19:27 46.88704 142.72091 63 ft 6 kts 56°
2026-04-26 19:27 46.88728 142.72155 60 ft 7 kts 81°
2026-04-26 19:27 46.88729 142.72217 58 ft 4 kts 90°
2026-04-26 19:27 46.88729 142.72239 62 ft 1 kts 91°
2026-04-26 19:28 46.88729 142.72242 62 ft 0 kts 91°